2014 LJ
ephemeris date magn radius delta ra dec elong phase
Today19 Oct 202531.31.174 AU1.455 AU17h11m-23°31'53.3°42.9°
2014 LJ - 2025-10-19
astro.vanbuitenen.nl


 
-1 year
-1 month
-1 day
Now
+1 day
+1 month
+1 year

The interactive orbit chart above shows the body's path through the solar system and its position at the given date. Green and blue lines are shown perpendicular to the ecliptic plane: Green if the path is above the ecliptic plane, blue if it is below. (Left-click and drag to rotate the view; Right-click and drag to move the view; Use scroll wheel to zoom in our out.)

The orbital elements of 2014 LJ are:

            e (Eccentricity)                : 0.1407091
            a (Semimajor axis)              : 1.0819239
            i (Inclination)                 : 0.91102
            Ω (Longitude of ascending node) : 71.22890
            ω (Argument of perihelion)      : 97.27030
            M (Mean anomaly)                : 334.30509
            Epoch                           : 2025 May 05

            L (Longitude of perihelion)     : -11.49989
            B (Latitude of perihelion)      : 0.90369
            P (Orbital period in years)     : 1.13            
        

The light curve chart below shows the estimated development of the minor planet's magnitude.


The all-sky chart below shows the path of the minor planet over the same period as the light curve. The current position is marked yellow.





The following chart shows the path of the minor planet in the next few days. The field of view is optimized for (~10x50) binoculars and finderscopes.




Ephemerides:
Date       Time       RA (2000)    DEC (2000)    delta   radius  elong  phase   PA    magn
2025-10-19 00:00 UT   17 11 05.2   -23 31 50     1.455    1.174   53.3   42.9    95   31.3 
2025-10-19 01:28 UT   17 11 19.5   -23 32 08     1.455    1.174   53.3   42.9    95   31.3 
2025-10-20 00:00 UT   17 14 58.8   -23 36 29     1.460    1.175   53.2   42.7    95   31.3 
2025-10-21 00:00 UT   17 18 52.1   -23 40 45     1.465    1.177   53.1   42.6    95   31.4 
2025-10-22 00:00 UT   17 22 45.2   -23 44 39     1.469    1.179   53.0   42.4    94   31.4 
2025-10-23 00:00 UT   17 26 38.0   -23 48 11     1.474    1.180   52.9   42.2    94   31.4 
2025-10-24 00:00 UT   17 30 30.4   -23 51 20     1.479    1.182   52.8   42.1    93   31.4 
2025-10-25 00:00 UT   17 34 22.5   -23 54 08     1.483    1.183   52.7   41.9    93   31.4 
2025-10-26 00:00 UT   17 38 14.3   -23 56 33     1.488    1.185   52.6   41.8    93   31.4 
2025-10-27 00:00 UT   17 42 05.7   -23 58 36     1.493    1.187   52.4   41.6    92   31.4 
2025-10-28 00:00 UT   17 45 56.7   -24 00 18     1.498    1.188   52.3   41.5    92   31.4 


    Terminology:
            
    delta:  distance between minor planet and earth in AU
    radius: distance between minor planet and sun in AU
    magn:   magnitude (brightness) estimate    
    ra:     right ascension in hours (24h = 360deg)
    dec:    declination in degrees
    elong:  elongation in degrees (angle sun-earth-minor planet)    
    phase:  phase angle in degrees (angle sun-minor planet-earth)        
    AU:     Astronomical Unit (mean distance between earth and sun: 149597870.7 km
    

Orbital elements provided by the MPC (Minor Planet Center).
Calculations by a modified version of AAPlus, a C# implementation of the AA+ project by PJ Naughter from the algorithms presented in the book "Astronomical Algorithms" by Jean Meeus.
NGC2000 dso catalog and star labels from VizieR as provided by the Strasbourg astronomical Data Center.
Tycho2 catalog from the ESO archive.